ATLAS 5 CENTAUR DEB, 44659

Orbit data source: Space-Track

ATLAS 5 CENTAUR DEB, 44659 is space debris in HEO originally from a launch on Wed, 17 Oct 2018 UTC launched from the Air Force Eastern Test Range (AFETR). Debris objects in space refer to the collection of defunct objects orbiting the Earth. Examples of debris include non-operational satellites, rocket bodies, and fragments generated from explosions, collisions, or faulty payload assembly.

Loading next visibility...
Identifier
44659, 2018-079V
Orbit
HEO
Country
Flag of USUS
Related business
Flag of USUnited Launch Alliance/Lockheed Martin (US)
Manufacturer
ULA Decatur
Mission
Spacecraft
Bus & Motor
Unknown
Mass
Unknown
Launch date (UTC)
2018-10-17 (7 years ago)
Launch vehicle
Unknown
Launch site
Air Force Eastern Test Range (AFETR)
Object type
Payload
Rocket body
Debris
Shape & HBR
Unknown shape, 1.1 m
Radar Cross Section
RCS unknown

Expand to show TLE details & history
Last TLE update: 5 days ago

TLE from 5 days ago
0 ATLAS 5 CENTAUR DEB
1 44659U 18079V   25292.98203695 -.00000114  00000-0  00000-0 0  9992
2 44659  13.2324  40.2284 4526048 306.6279  19.8107  1.90580415 44789
Epoch: 2025-10-19T23:34Z
TLE epoch observation values (Epoch: 2025-10-19T23:34:07.992Z)
Latitude
0.00002°
Longitude
17.97906°
Altitude
10,803.782 km
Speed
5.647 km/s
True Right ascension
02h 40m 48s
True Declination
0° 00' 00"
Sunlit
Object was in full shadow at epoch
Visualization orbit readout
Latitude
Unknown
Longitude
Unknown
Altitude
Unknown
Speed
Unknown
Apparent Right ascension
Unknown
Apparent Declination
Unknown
Sunlit
N/A
Visualization observer readout
Local Sidereal Time
08:27:32
Azimuth
Unknown
Elevation
Unknown
Doppler factor
Unknown
Orbital elements
Apogee altitude
33,542.456 km
Perigee altitude
8,665.419 km
Semi-major axis
27,482.074 km
Eccentricity
0.4526
Inclination
13.2324°
RAAN
40.2284°
Arg. of periapsis
306.6279°
True anomaly
53.66004°
Mean anomaly
19.8107°
Eccentric anomaly
34.49831°
Mean motion
0.4764 °/min
Orbital period
755.67 mins
BSTAR
0
Loading maneuver chart data...
Computing Atmospheric mass density...

Documentation

Showing up to 5 results
|